Location: Nitra
(48.3170°N, 18.0830°E)
Time: 22:49:02
(UTC+01:00)

ISS - Visible Passes

Search period start: 24 March 2019 00:00
Search period end: 03 April 2019 01:00
Orbit: 408 x 411 km, 51.6° (Epoch: 24 March)

Date Brightness Start Highest point End Pass type
(mag) Time Alt. Az. Time Alt. Az. Time Alt. Az.
24 Mar -3.9 19:32:32 10° WSW 19:35:50 73° SSE 19:37:09 33° ENE visible
24 Mar -0.7 21:09:22 10° W 21:09:56 14° WNW 21:09:56 14° WNW visible
25 Mar -3.4 18:42:03 10° SW 18:45:14 47° SSE 18:48:26 10° ENE visible
25 Mar -3.1 20:18:35 10° W 20:21:38 52° NNW 20:21:38 52° NNW visible
26 Mar -3.5 19:27:49 10° W 19:31:06 67° NNW 19:33:13 20° ENE visible
26 Mar -1.1 21:04:47 10° WNW 21:05:59 20° WNW 21:05:59 20° WNW visible
27 Mar -3.8 18:37:06 10° WSW 18:40:24 89° S 18:43:43 10° ENE visible
27 Mar -3.0 20:14:00 10° WNW 20:17:12 45° N 20:17:27 44° NNE visible
28 Mar -3.1 19:23:11 10° W 19:26:26 49° N 19:28:51 16° ENE visible
28 Mar -1.4 21:00:05 10° WNW 21:01:37 24° WNW 21:01:37 24° WNW visible
29 Mar -3.1 20:09:20 10° WNW 20:12:33 46° N 20:12:58 43° NNE visible
30 Mar -2.9 19:18:32 10° WNW 19:21:44 44° N 19:24:16 15° ENE visible
30 Mar -1.8 20:55:15 10° WNW 20:57:01 29° WNW 20:57:01 29° WNW visible
31 Mar -3.5 21:04:31 10° WNW 21:07:48 60° NNE 21:08:18 51° ENE visible
01 Apr -3.2 20:13:45 10° WNW 20:16:59 50° N 20:19:35 15° E visible
01 Apr -2.1 21:50:23 10° WNW 21:52:20 31° W 21:52:20 31° W visible
02 Apr -3.9 20:59:37 10° WNW 21:02:56 87° SSW 21:03:36 54° ESE visible
